Weather observations for the past three days for
Estherville, Estherville Municipal Airport
Imperial (Metric)
Date Time (cdt) Wind (mph) Vis. (mi.) Weather Sky Cond. Temperature (ºF) Relative Humidity Wind Chill (°F) Heat Index (°F) Pressure Precipitation (in)
Air Dwpt 6 hour altimeter (in) sea level (mb) 1 hr 3 hr 6 hr
Max. Min.
20 18:52 SW 6 10.00 Overcast FEW080 OVC110 73 64.9 81 73 76% 30.11 1018.9
20 17:52 S 15 10.00 Thunderstorm in Vicinity SCT030 BKN040 OVC070 73.9 64 71% 30.1 1018.8
20 16:52 S 7 10.00 Mostly Cloudy SCT030 BKN044 BKN050 78.1 64 62% 80 30.11 1018.9
20 15:52 Calm 10.00 A Few Clouds FEW032 80.1 63 56% 81 30.11 1018.8
20 14:52 S 8 10.00 Partly Cloudy SCT090 78.1 64 62% 80 30.13 1019.5
20 13:52 S 7 10.00 A Few Clouds FEW021 75.9 64 67% 78 30.13 1019.6
20 12:52 SE 6 10.00 Mostly Cloudy BKN016 75 64.9 75 64.9 71% 77 30.14 1020.0 0.02
20 11:52 SE 3 10.00 Overcast BKN013 BKN019 OVC032 71.1 64.9 81% 30.14 1020.0
20 10:52 SE 5 9.00 Overcast FEW008 OVC045 69.1 64.9 87% 30.14 1020.1
20 09:52 S 3 10.00 Mostly Cloudy BKN040 BKN060 66.9 64 91% 30.13 1019.8 0.01 0.02
20 08:52 SW 3 9.00 Thunderstorm in Vicinity BKN043 OVC050 66.9 64 91% 30.13 1019.8
20 07:52 S 6 4.00 Light Rain Fog/Mist SCT029 BKN036 OVC049 66 64 93% 30.13 1019.7 0.01
20 06:52 S 5 10.00 Overcast SCT023 OVC055 64.9 63 66 64.9 93% 30.11 1019.2 0.01
20 05:52 S 7 6.00 Rain Fog/Mist BKN050 OVC070 64.9 63 93% 30.1 1018.5 0.01
20 04:52 Calm 9.00 Overcast BKN048 OVC080 66 63 90% 30.1 1018.5
20 03:52 S 3 10.00 Overcast OVC047 66 62.1 87% 30.09 1018.4
20 02:52 S 5 10.00 Overcast BKN048 OVC070 66 62.1 87% 30.08 1018.1
20 01:52 S 6 10.00 Overcast BKN043 OVC055 66 62.1 87% 30.08 1018.1
20 00:52 S 3 10.00 Mostly Cloudy SCT043 BKN055 64.9 62.1 75.9 64.9 90% 30.08 1018.1
19 23:52 S 6 10.00 Fair CLR 66 61 84% 30.08 1018.0
19 22:52 S 5 10.00 Fair CLR 64.9 61 87% 30.09 1018.5
19 21:52 S 3 10.00 A Few Clouds FEW090 68 62.1 81% 30.09 1018.3
19 20:52 S 3 10.00 Fair CLR 71.1 62.1 73% 30.06 1017.4
19 19:52 S 8 10.00 Mostly Cloudy SCT039 BKN100 73.9 61 64% 30.07 1017.6
19 18:52 S 10 10.00 Mostly Cloudy BKN042 75 61 78.1 73.9 62% 77 30.08 1018.0
19 17:52 S 12 10.00 Overcast OVC055 75.9 60.1 58% 78 30.08 1018.1
19 16:52 S 15 10.00 Overcast BKN055 OVC110 75.9 60.1 58% 78 30.08 1018.1
19 15:52 S 14 G 22 10.00 Partly Cloudy SCT065 77 60.1 56% 79 30.09 1018.5
19 14:52 S 15 10.00 Mostly Cloudy BKN060 77 60.1 56% 79 30.09 1018.5
19 13:52 S 15 10.00 Mostly Cloudy BKN065 77 59 54% 79 30.11 1019.2
19 12:52 S 13 10.00 Mostly Cloudy BKN070 73.9 57.9 75.9 61 57% 30.12 1019.6
19 11:52 S 17 G 23 10.00 Mostly Cloudy BKN070 BKN080 73.9 57 56% 30.14 1020.0
19 10:52 S 10 10.00 Overcast OVC046 70 57.9 66% 30.14 1020.4
19 09:52 S 12 10.00 Overcast OVC055 66.9 55.9 68% 30.15 1020.6
19 08:52 S 8 10.00 Overcast BKN055 OVC070 66 55 68% 30.16 1020.8
19 07:52 S 7 10.00 Overcast BKN050 OVC065 64 55 73% 30.17 1021.0
19 06:52 S 9 10.00 Mostly Cloudy BKN055 61 55 61 57.9 81% 30.16 1020.8
19 05:52 S 6 10.00 Overcast SCT050 OVC060 60.1 55 84% 30.16 1020.8
19 04:52 S 7 10.00 A Few Clouds FEW055 57.9 54 87% 30.16 1021.0
19 03:52 S 7 10.00 Fair CLR 59 55 87% 30.16 1020.8
19 02:52 S 5 10.00 Partly Cloudy SCT055 59 55 87% 30.17 1020.9
19 01:52 S 7 10.00 A Few Clouds FEW050 57.9 55 90% 30.16 1021.0
19 00:52 S 7 10.00 Fair CLR 57.9 55 77 57.9 90% 30.17 1021.2
18 23:52 S 7 10.00 Fair CLR 60.1 55 84% 30.16 1020.9
18 22:52 S 7 10.00 Fair CLR 62.1 55 78% 30.16 1021.0
18 21:52 S 5 10.00 Fair CLR 64 55.9 75% 30.17 1021.1
18 20:52 SE 6 10.00 Fair CLR 68 55.9 65% 30.15 1020.7
18 19:52 S 5 10.00 Fair CLR 73.9 55 52% 30.16 1020.9
18 18:52 S 7 10.00 Fair CLR 77 52 79 75 42% 78 30.17 1021.3
18 17:52 Calm 10.00 Fair CLR 77 51.1 40% 78 30.18 1021.7
18 16:52 S 3 10.00 Fair CLR 78.1 50 37% 79 30.2 1022.3
18 15:52 S 6 10.00 Partly Cloudy SCT055 78.1 52 40% 79 30.21 1022.6
18 14:52 S 8 10.00 Partly Cloudy SCT055 78.1 50 37% 79 30.22 1022.9
18 13:52 N 3 10.00 Fair CLR 75.9 50 40% 78 30.23 1023.4
18 12:52 Calm 10.00 Fair CLR 75 50 75 55.9 42% 78 30.24 1023.4
18 11:52 SE 5 10.00 Fair CLR 73.9 50 43% 30.25 1023.9
18 10:52 Calm 10.00 A Few Clouds FEW041 73 50 44% 30.26 1024.1
18 09:52 S 6 10.00 Fair CLR 70 53.1 55% 30.26 1024.3
18 08:52 S 6 10.00 Fair CLR 66.9 54 63% 30.26 1024.2
18 07:52 Calm 10.00 Fair CLR 63 55.9 78% 30.25 1024.1
18 06:52 Calm 10.00 Fair CLR 55.9 53.1 57.9 54 90% 30.25 1024.1
18 05:52 NW 3 10.00 Fair CLR 54 50 87% 30.24 1023.9
18 04:52 NW 3 10.00 Fair CLR 54 50 87% 30.24 1023.5
18 03:52 N 3 10.00 Fair CLR 55 51.1 87% 30.23 1023.3
18 02:52 NW 3 10.00 Fair CLR 55.9 52 87% 30.23 1023.3
18 01:52 NW 5 10.00 Fair CLR 57 53.1 87% 30.23 1023.4
18 00:52 N 3 10.00 Fair CLR 57.9 52 72 57 81% 30.22 1023.1
17 23:52 Calm 10.00 Fair CLR 57.9 52 81% 30.21 1022.5
17 22:52 N 3 10.00 Fair CLR 61 52 72% 30.2 1022.2
17 21:52 N 5 10.00 Fair CLR 62.1 52 70% 30.19 1022.1
17 20:52 N 6 10.00 Fair CLR 66 53.1 63% 30.18 1021.5
17 19:52 N 9 10.00 Fair CLR 71.1 50 47% 30.17 1021.1
Date Time (cdt) Wind (mph) Vis. (mi.) Weather Sky Cond. Air Dwpt Max. Min. Relative Humidity Wind Chill (°F) Heat Index (°F) altimeter (in) sea level (mb) 1 hr 3 hr 6 hr
6 hour
Temperature (ºF) Pressure Precipitation (in)